TimeEDT,TemperatureF,Dew PointF,Humidity,Sea Level PressureIn,VisibilityMPH,Wind Direction,Wind SpeedMPH,Gust SpeedMPH,PrecipitationIn,Events,Conditions,WindDirDegrees,DateUTC
12:51 AM,52.0,48.0,86,30.11,10.0,Calm,Calm,-,N/A,,Clear,0,2011-10-25 04:51:00
1:51 AM,51.1,46.9,86,30.12,10.0,Calm,Calm,-,N/A,,Clear,0,2011-10-25 05:51:00
2:51 AM,50.0,46.0,86,30.14,10.0,Calm,Calm,-,N/A,,Clear,0,2011-10-25 06:51:00
3:51 AM,50.0,45.0,83,30.14,10.0,Calm,Calm,-,N/A,,Clear,0,2011-10-25 07:51:00
4:51 AM,48.9,44.1,83,30.15,10.0,Calm,Calm,-,N/A,,Clear,0,2011-10-25 08:51:00
5:51 AM,48.9,44.1,83,30.18,10.0,Calm,Calm,-,N/A,,Clear,0,2011-10-25 09:51:00
6:51 AM,48.0,43.0,83,30.20,10.0,Calm,Calm,-,N/A,,Clear,0,2011-10-25 10:51:00
7:51 AM,46.0,43.0,89,30.23,10.0,Calm,Calm,-,N/A,Fog,Patches of Fog,0,2011-10-25 11:51:00
8:51 AM,53.1,46.9,80,30.26,10.0,Calm,Calm,-,N/A,,Clear,0,2011-10-25 12:51:00
9:51 AM,59.0,46.9,64,30.27,10.0,North,4.6,-,N/A,,Clear,10,2011-10-25 13:51:00
10:51 AM,62.1,44.1,52,30.27,10.0,NE,6.9,-,N/A,,Clear,40,2011-10-25 14:51:00
11:51 AM,64.9,41.0,42,30.27,10.0,North,6.9,-,N/A,,Clear,360,2011-10-25 15:51:00
12:51 PM,66.9,39.0,36,30.25,10.0,Variable,4.6,-,N/A,,Clear,0,2011-10-25 16:51:00
1:51 PM,68.0,39.0,35,30.22,10.0,Calm,Calm,-,N/A,,Partly Cloudy,0,2011-10-25 17:51:00
2:51 PM,69.1,41.0,36,30.19,10.0,Calm,Calm,-,N/A,,Partly Cloudy,0,2011-10-25 18:51:00
3:51 PM,71.1,42.1,35,30.18,10.0,SW,3.5,-,N/A,,Partly Cloudy,230,2011-10-25 19:51:00
4:51 PM,70.0,41.0,35,30.17,10.0,West,3.5,-,N/A,,Partly Cloudy,260,2011-10-25 20:51:00
5:51 PM,66.0,45.0,47,30.17,10.0,Calm,Calm,-,N/A,,Partly Cloudy,0,2011-10-25 21:51:00
6:51 PM,61.0,46.9,60,30.18,10.0,Calm,Calm,-,N/A,,Partly Cloudy,0,2011-10-25 22:51:00
7:51 PM,54.0,46.0,75,30.17,10.0,Calm,Calm,-,N/A,,Clear,0,2011-10-25 23:51:00
8:51 PM,53.1,45.0,74,30.18,10.0,Calm,Calm,-,N/A,,Clear,0,2011-10-26 00:51:00
9:51 PM,52.0,44.1,74,30.17,10.0,Calm,Calm,-,N/A,,Clear,0,2011-10-26 01:51:00
10:51 PM,52.0,44.1,74,30.17,10.0,Calm,Calm,-,N/A,,Clear,0,2011-10-26 02:51:00
11:51 PM,50.0,44.1,80,30.16,10.0,Calm,Calm,-,N/A,,Clear,0,2011-10-26 03:51:00